Regional Weather Roundup
Issued by NWS Mt. Holly, NJ

Home | Current Version | Previous Version | Text Only | Print | Product List | Glossary On
Versions: 1 2 3 4 5 6 7 8 9 10 11 12 13 14 15 16 17 18 19 20 21 22 23 24 25 26 27 28 29 30 31 32 33 34 35 36 37 38 39 40 41 42 43 44 45 46 47 48 49 50
000
ASUS41 KPHI 292311
RWRPHI

REGIONAL WEATHER ROUNDUP
NATIONAL WEATHER SERVICE MOUNT HOLLY NJ
700 PM EDT SUN MAR 29 2015

NOTE:  "FAIR" INDICATES FEW OR NO CLOUDS BELOW 12,000 FEET WITH NO
SIGNIFICANT WEATHER AND/OR OBSTRUCTIONS TO VISIBILITY.

 * = STATION DOES NOT REPORT PRECIPITATION (E.G. RAIN, SNOW, ETC.)
        OR FOG.

NJZ015>026-300000-
SOUTHERN NEW JERSEY

CITY           SKY/WX    TMP DP  RH WIND       PRES   REMARKS
POMONA         CLEAR     42   9  25 W9        30.21F
RIO GRANDE*    CLEAR     39  16  38 W5        30.25F
MILLVILLE      CLEAR     40  12  32 W10       30.23F WCI  33
WRIGHTSTOWN    CLEAR     42   9  25 W9        30.17F
MOUNT HOLLY    CLEAR     43   7  22 SW6       30.20F
TRENTON        CLEAR     43   7  22 W9        30.17F

$$
NJZ001>014-300000-
NORTHERN NEW JERSEY

CITY           SKY/WX    TMP DP  RH WIND       PRES   REMARKS
SUSSEX         CLEAR     42   4  20 SW5       30.13F
ANDOVER*         N/A     42   1  18 VRB6      30.13F
MORRISTOWN     PTCLDY    45   3  18 W9        30.16F
NEWARK         PTCLDY    45   2  17 W12       30.16F
TETERBORO      CLEAR     46   6  19 VRB6      30.15F
CALDWELL       CLEAR     45   1  16 W7        30.15F
SOMERVILLE     CLEAR     44   4  19 VRB3      30.15F
ALLAIRE*       CLEAR     41  16  36 SW5       30.19S
TOMS RIVER*    CLEAR     43   9  24 CALM      30.19F

$$
PAZ043-044-047-054-055-060>062-066>071-300000-
EASTERN PENNSYLVANIA

CITY           SKY/WX    TMP DP  RH WIND       PRES   REMARKS
PHILADELPHIA   CLEAR     43   8  23 SW10      30.21F
NORTH PHILA    CLEAR     43   6  21 W10       30.20F
BLUE BELL      CLEAR     43  14  31 SW6       30.18F
DOYLESTOWN     CLEAR     40   7  25 SW5       30.16F
QUAKERTOWN*    CLEAR     41   7  24 W5        30.16F
POTTSTOWN      CLEAR     41  10  28 SW5       30.18F
LANCASTER      CLEAR     42   6  22 SW9       30.15F
COATESVILLE    CLEAR     39   7  26 S3        30.16F
READING        CLEAR     42   4  20 SW6       30.14F
ALLENTOWN      CLEAR     42  10  27 SW14      30.15F
MOUNT POCONO   CLEAR     35   5  28 W9        30.07F WCI  28
HAZLETON       CLEAR     37   1  22 S3        30.10F
WILKES BARRE   CLEAR     41   5  22 SW7       30.08F

$$
DEZALL-MDZ008-012-015-019-020-300000-
DELAWARE AND EASTERN MARYLAND

CITY           SKY/WX    TMP DP  RH WIND       PRES   REMARKS
WILMINGTON     CLEAR     43   6  21 SW8       30.21F
DOVER          CLEAR     42  11  28 W8        30.19F
GEORGETOWN     CLEAR     41   9  26 VRB7      30.26S
EASTON         PTCLDY    43  16  33 CALM      30.27F
PATUXENT       CLEAR     41   9  26 W6        30.25F
OCEAN CITY     CLEAR     37  22  54 S3        30.27S
WALLOPS ISLAND CLEAR     39  11  31 NW6       30.28S WCI  35
CAMBRIDGE      CLEAR     43  10  26 CALM      30.25F
SALISBURY      CLEAR     40   9  28 W9        30.26F WCI  34

$$
PAZ001-021-NYZ056-072-MDZ011-DCZ001-300000-
OTHER NEARBY LOCATIONS

CITY           SKY/WX    TMP DP  RH WIND       PRES   REMARKS
HARRISBURG     PTCLDY    43  10  26 S8        30.14F
STATE COLLEGE  CLEAR     41   5  22 S9        30.05F
WILLIAMSPORT   CLEAR     43   2  18 S10G16    30.08F
BINGHAMTON     CLEAR     36   7  29 S8        30.02F WCI  30
NEW YORK CITY  CLEAR     45   4  18 VRB5      30.18S
BALTIMORE      PTCLDY    42   7  23 SW5       30.19F
WASHINGTON DC  PTCLDY    46   6  19 S7        30.23F

$$


USA.gov is the U.S. government's official web portal to all federal, state and local government web resources and services.